RH
14 15 17 16 17 19 20 21 21 22 23 22 23 26 27 28 26 23 23 25 24 22 25 25 22 24 31 37 40 43 45 51 59 63 61 58 58 60 60 58 53 48 47 46 45 47 53 60 63 63 61 58 55 55 53 50 48 46 45 44 41 39 37 35 33 30 28 27 28 28 31 33 32 30 29 25 21 22 25 27 30 32 34 39 46 53
16 17 18 18 19 21 24 26 25 25 26 26 27 28 28 27 26 24 25 28 28 25 28 29 25 24 31 37 42 45 46 51 55 57 57 57 60 62 61 59 55 50 48 45 44 45 48 56 59 60 61 61 58 56 53 49 46 45 44 43 41 39 36 33 29 28 28 29 30 31 32 34 33 31 30 26 21 21 24 26 27 29 31 34 39 45
18 18 18 20 24 24 25 29 30 29 29 27 28 28 29 28 26 27 30 31 32 30 30 31 27 26 30 34 42 47 46 48 51 52 56 58 60 62 61 60 56 51 49 46 46 45 45 48 52 54 56 57 58 56 54 50 46 45 44 43 41 38 36 33 30 30 31 34 36 36 36 36 36 34 32 29 25 22 22 24 27 28 29 30 32 36
20 23 23 26 29 26 25 30 32 30 29 29 28 28 30 29 26 29 33 35 36 35 33 34 32 33 34 33 38 44 44 46 50 54 57 58 59 61 61 57 53 51 48 45 45 46 45 44 46 49 49 49 52 54 55 52 48 47 47 44 39 36 35 34 33 32 36 39 39 38 39 40 40 37 34 32 29 25 21 20 23 27 29 29 29 30
22 26 27 29 31 29 27 29 30 28 29 34 33 31 32 31 29 31 34 39 42 40 38 39 37 36 37 35 37 41 44 46 49 55 57 57 59 60 59 55 53 51 48 44 43 44 44 43 42 45 45 45 48 52 54 52 49 49 49 43 38 36 34 35 33 32 37 42 39 39 41 42 43 41 36 32 30 26 24 20 17 17 20 23 25 25
24 25 25 26 29 30 29 29 31 28 28 34 36 35 32 31 33 36 38 42 44 41 38 39 38 39 42 43 40 41 47 50 51 53 55 56 58 58 57 57 55 54 51 46 45 47 46 42 42 44 45 46 48 51 51 48 47 50 49 40 36 36 35 36 35 35 41 45 43 41 41 40 41 40 36 34 33 30 27 24 17 13 13 16 18 19
25 25 25 25 27 30 30 29 30 30 28 29 34 36 33 31 34 38 40 40 42 43 42 42 42 45 48 45 41 42 49 52 52 52 53 54 57 56 55 57 56 55 54 50 48 51 49 45 44 44 46 47 49 52 49 46 47 49 45 37 36 37 38 40 40 41 45 48 47 45 43 43 43 43 40 36 33 31 28 25 19 15 14 17 18 18
26 25 27 26 26 29 29 28 30 31 29 28 33 36 32 30 32 38 41 40 42 45 45 48 46 43 48 47 42 44 48 52 51 51 53 54 54 54 56 57 56 55 53 50 50 52 52 51 48 46 47 49 50 53 52 47 45 43 39 34 34 36 39 44 45 45 49 52 52 50 51 53 53 54 49 36 27 26 24 22 20 18 17 19 20 20
27 25 26 27 26 27 27 29 33 31 29 30 34 35 33 32 35 42 44 42 46 43 43 51 48 41 48 50 44 42 43 47 49 49 51 52 52 53 56 57 56 56 54 50 49 50 53 55 53 49 50 51 52 54 52 48 42 39 36 34 35 37 42 49 49 47 50 55 59 58 57 58 59 62 57 41 29 23 20 19 19 21 20 20 22 23
27 24 27 28 27 28 28 31 33 29 29 32 32 32 33 37 43 47 47 47 50 47 44 53 51 43 49 52 47 41 39 42 46 47 47 48 49 51 55 57 58 57 56 52 49 50 56 60 56 52 52 53 53 53 51 49 42 37 36 35 37 39 44 51 53 49 48 52 56 57 57 55 56 62 59 47 38 29 23 19 17 18 19 20 21 22
27 26 28 29 27 29 30 31 32 28 27 30 31 29 29 39 47 52 55 52 51 52 50 55 54 48 50 52 49 41 36 38 43 45 44 44 47 52 54 57 59 59 57 54 51 53 60 63 60 57 56 55 55 54 53 51 45 40 40 39 38 40 43 47 51 51 49 49 48 49 51 51 54 58 57 51 45 38 31 26 21 19 16 16 18 19
30 28 29 29 27 29 29 30 30 28 28 29 32 30 27 35 43 50 56 51 51 58 55 56 56 48 49 49 44 38 36 38 42 43 43 43 47 51 54 56 59 60 58 54 53 58 64 65 63 59 56 54 53 52 52 51 48 45 43 41 42 45 46 46 47 49 51 52 52 51 53 55 57 58 56 53 51 45 38 33 29 24 18 14 15 17
32 30 32 30 28 29 29 31 31 29 30 29 32 33 31 34 38 46 57 54 55 57 52 56 53 46 49 46 35 33 34 38 43 42 42 45 48 51 53 56 59 60 58 55 56 61 64 66 65 60 56 53 50 48 48 48 49 48 44 43 43 43 44 46 46 49 54 59 61 61 63 64 64 62 60 58 56 50 41 35 33 29 21 16 14 15
33 35 34 31 30 29 28 33 34 33 32 29 31 34 35 37 38 46 59 59 56 54 52 56 50 46 49 42 33 34 33 37 41 40 41 45 49 51 54 57 60 61 60 59 60 62 64 65 63 59 57 53 50 48 46 44 46 45 44 45 41 37 37 40 45 50 59 66 70 72 73 70 68 66 65 65 61 51 42 36 33 30 24 18 15 15
37 40 38 34 33 32 30 33 36 39 36 32 33 33 34 38 38 40 46 48 51 54 54 53 48 49 48 39 36 37 35 38 41 42 45 47 49 51 54 59 61 61 63 63 61 63 64 63 61 58 56 52 49 47 44 40 39 38 37 39 37 34 33 38 47 57 64 66 70 73 71 69 72 71 69 68 60 50 44 39 35 33 29 21 17 15
36 39 42 38 35 32 31 33 36 37 36 34 34 31 31 35 35 35 37 41 47 48 48 48 48 51 47 38 40 40 37 41 44 45 47 48 50 52 57 62 63 64 67 66 64 65 65 63 61 59 55 51 49 46 40 37 36 36 36 37 36 35 36 44 59 74 78 74 73 74 69 66 71 72 71 67 57 50 49 43 38 37 33 25 20 17
35 38 40 39 37 35 32 33 35 35 35 36 34 32 33 33 35 39 39 43 46 43 45 45 43 48 48 41 42 42 42 46 48 50 51 50 51 54 59 63 63 67 73 72 70 69 66 64 62 58 53 51 49 43 37 37 38 39 38 38 37 38 43 54 67 76 76 70 71 73 69 66 67 68 69 63 51 49 51 47 44 43 37 30 25 21
39 40 39 37 38 38 35 36 39 35 34 36 35 35 36 35 38 43 44 48 47 45 49 46 42 48 50 46 44 41 44 49 51 55 58 59 58 59 63 68 68 69 72 74 73 71 67 62 58 56 55 53 48 40 36 37 40 42 42 41 40 43 51 59 64 66 60 55 63 71 69 67 66 67 69 62 51 51 54 52 49 47 41 35 32 29
40 39 41 40 39 40 39 42 44 39 35 35 35 36 38 40 43 43 44 48 48 50 52 47 49 53 51 50 47 41 45 52 54 58 63 66 68 68 67 70 71 68 68 71 71 68 66 62 61 59 57 52 43 37 36 36 39 42 44 44 44 46 53 58 59 58 52 51 61 70 67 64 64 66 68 64 57 55 56 57 55 51 46 40 36 35
45 41 44 46 43 41 43 46 46 43 40 37 35 36 37 43 48 45 45 47 47 54 56 51 53 56 53 53 48 42 48 55 57 61 64 66 70 72 68 68 70 68 68 69 67 64 62 60 60 56 50 45 40 38 38 39 41 43 43 44 44 46 51 56 57 55 52 52 60 64 60 58 59 62 64 63 59 55 56 62 61 57 53 46 40 37
47 42 45 51 48 44 46 48 45 43 42 39 37 38 37 40 42 42 45 46 46 56 64 59 54 54 56 58 53 48 51 55 59 63 65 66 69 70 68 68 71 70 69 67 64 60 57 53 51 47 44 42 41 40 41 41 42 43 42 41 42 46 51 52 52 52 52 54 57 58 56 54 57 64 67 66 61 56 58 66 68 65 63 56 48 43
46 46 52 55 50 46 47 48 46 45 44 42 40 40 40 42 41 42 46 47 46 52 58 57 52 52 55 58 58 59 58 57 60 62 64 66 66 67 68 69 71 70 68 64 60 57 56 54 50 46 44 44 43 43 43 42 42 40 40 40 41 44 46 47 47 50 51 51 53 58 59 56 58 66 70 67 64 61 61 67 71 70 68 63 58 55
49 52 53 52 50 48 47 46 46 45 44 45 44 43 44 45 44 47 50 48 46 46 48 51 51 50 52 54 56 59 59 58 60 61 64 66 67 68 69 69 70 68 64 62 61 61 60 59 57 53 50 48 48 46 43 42 43 41 40 39 40 40 40 42 45 49 51 52 55 61 63 61 61 64 65 65 67 65 62 66 70 70 70 69 69 68
52 50 49 51 53 51 48 47 47 45 44 46 46 46 47 43 44 51 53 50 49 46 46 51 52 49 48 50 50 50 51 55 57 60 64 66 68 69 68 68 69 66 63 63 64 67 67 65 63 60 57 55 53 50 47 45 46 44 42 42 41 39 38 40 42 46 50 54 57 59 59 60 63 62 60 62 65 63 61 63 66 67 71 74 75 75
51 51 51 51 51 51 54 56 54 48 46 48 49 49 47 45 48 50 50 51 50 46 47 53 55 51 48 50 52 52 54 55 56 59 62 66 69 69 66 66 65 63 61 60 60 63 65 64 62 61 60 58 56 53 50 48 48 48 48 47 45 42 40 40 41 45 50 54 55 54 52 53 57 57 56 58 61 61 61 61 60 63 70 75 77 79
54 59 60 56 55 57 62 66 62 53 49 51 51 50 47 47 47 43 44 51 50 47 50 52 53 52 49 49 53 55 57 58 57 57 59 62 63 61 60 60 61 61 59 55 54 53 54 55 55 57 58 57 57 55 51 49 50 52 53 51 49 47 45 43 42 45 48 49 50 49 48 48 52 55 56 57 59 60 62 63 61 61 64 64 66 72
62 65 64 64 61 58 57 59 57 53 53 51 48 47 48 49 48 45 46 50 51 52 52 49 49 50 47 49 52 52 51 53 53 53 54 55 54 53 55 56 57 58 57 54 51 49 49 49 50 52 55 55 56 57 57 55 54 56 57 55 52 50 48 47 46 46 48 47 46 48 50 51 54 58 59 60 60 60 64 67 65 65 63 56 55 61
67 61 59 62 60 56 55 52 50 51 53 52 51 50 50 52 53 50 45 46 50 54 52 46 46 48 46 47 49 47 46 48 50 51 52 54 55 55 57 60 58 58 57 56 55 51 48 46 46 47 50 52 54 57 60 62 60 60 61 58 54 51 51 51 50 49 50 50 49 50 52 53 56 61 63 63 62 61 65 66 65 67 65 57 58 62
67 62 59 60 58 57 57 54 52 52 54 56 59 57 53 52 53 53 50 51 52 51 50 47 47 48 46 46 47 47 48 50 50 50 49 52 54 54 55 57 58 57 57 56 58 57 53 49 48 47 48 50 53 56 58 58 59 60 60 59 55 52 51 51 51 50 51 51 49 49 51 52 53 57 59 59 59 60 61 60 62 66 65 63 67 69
62 64 63 62 60 60 59 57 56 56 57 62 64 61 56 51 50 51 51 52 49 47 51 53 51 50 48 47 49 50 50 52 52 51 51 50 49 46 46 47 49 51 51 51 52 53 54 53 51 49 50 52 56 59 57 54 53 53 53 53 52 52 52 52 52 51 50 49 48 48 51 52 51 50 51 53 57 59 57 57 63 68 66 65 70 73
53 59 64 67 64 61 61 61 60 59 60 62 64 64 61 53 49 48 47 47 46 45 50 54 54 56 54 51 51 50 50 52 53 53 53 52 48 44 42 42 43 43 43 44 44 45 47 50 50 49 48 49 52 56 56 53 50 49 50 50 51 53 55 54 53 54 52 51 50 50 50 51 49 47 46 49 55 59 58 59 64 66 62 59 62 70
50 54 59 63 60 55 56 56 56 56 55 56 60 62 62 57 54 52 49 46 45 43 47 53 57 59 58 56 54 52 51 53 54 53 52 51 49 47 46 47 47 47 47 45 44 44 44 46 48 48 47 47 49 52 53 52 51 51 53 53 54 53 52 50 51 54 55 54 53 52 51 50 50 50 48 48 53 56 56 56 59 60 61 60 60 64
58 56 53 55 53 49 51 52 51 49 47 50 54 53 53 54 53 51 50 48 47 46 48 53 57 60 62 63 63 61 59 59 58 54 50 49 50 51 51 51 52 54 56 55 54 52 50 49 49 49 48 48 48 49 51 51 51 52 53 55 57 57 53 50 51 53 54 55 54 52 51 51 52 52 51 49 50 52 51 52 55 58 60 60 58 58
65 62 59 60 56 49 51 54 51 49 48 51 53 50 49 50 49 50 53 52 52 51 50 49 51 55 59 62 63 62 60 59 57 53 52 52 53 54 56 56 55 55 56 57 58 58 58 55 52 51 50 50 50 51 51 51 52 54 55 58 63 65 62 59 57 56 56 55 54 52 50 52 53 53 53 52 49 48 48 47 49 51 52 52 53 52
63 62 62 65 62 56 56 58 56 55 55 55 54 52 50 49 47 48 50 52 54 55 53 51 51 52 52 53 54 54 53 52 52 52 53 54 55 56 58 58 57 56 55 55 56 57 58 57 55 53 53 57 58 57 55 54 52 53 57 60 63 66 66 66 64 60 57 54 54 54 55 55 54 54 56 57 56 53 50 47 47 49 50 50 49 48
64 65 64 64 65 61 59 60 60 59 58 57 55 53 52 50 49 49 50 51 52 54 55 54 54 55 53 51 51 51 51 50 50 51 52 52 53 55 56 57 58 58 58 59 58 58 60 61 60 59 61 66 71 73 71 64 60 62 68 70 70 68 66 66 65 62 59 58 58 60 61 61 59 57 56 57 58 57 52 50 49 50 51 50 49 47
63 66 65 62 65 67 64 65 68 68 66 62 58 56 53 53 53 52 53 52 50 51 52 51 51 53 50 48 47 47 49 50 51 51 49 49 49 49 50 53 55 57 59 60 59 58 58 58 58 57 57 60 65 71 71 66 67 76 82 81 80 77 72 69 70 68 65 64 64 63 62 63 62 59 56 55 56 57 55 54 53 53 52 51 49 48
60 61 61 59 62 66 67 71 77 78 73 66 63 60 55 53 53 52 52 51 48 47 47 47 49 51 49 47 46 45 48 52 54 52 48 46 46 45 46 48 50 53 56 56 56 56 55 54 54 54 53 54 56 61 64 64 69 80 86 84 83 83 79 76 75 71 68 66 65 63 62 61 61 61 60 61 61 61 61 59 57 55 53 51 49 47
59 62 63 59 58 59 59 64 72 75 70 66 67 63 56 54 54 53 57 56 49 45 46 47 51 54 54 54 53 53 57 61 60 56 52 52 52 51 50 51 51 52 53 52 53 53 52 52 52 52 53 53 52 55 58 61 65 72 79 82 83 84 84 83 80 77 74 72 71 69 68 66 64 64 65 66 66 65 65 62 58 54 50 50 49 46
60 65 65 59 56 56 55 60 67 70 68 66 66 62 57 57 57 59 65 62 51 49 51 51 53 57 58 59 60 63 68 70 67 64 60 61 62 60 60 59 58 58 57 55 55 54 52 52 52 52 53 53 53 52 51 54 56 59 65 71 74 76 78 80 83 83 81 78 76 75 73 71 69 68 67 66 65 66 66 64 59 54 51 50 48 46
65 67 67 63 63 62 62 68 75 76 69 65 66 63 60 62 65 68 70 63 56 57 59 57 58 60 60 62 64 67 70 70 69 68 68 68 68 68 68 67 67 67 66 64 62 60 58 57 55 54 53 53 54 54 52 52 53 54 57 60 63 65 67 70 77 81 82 82 79 76 75 73 72 72 71 67 64 63 65 64 62 58 53 50 49 47
73 76 76 75 76 76 75 80 87 85 75 70 74 72 67 72 80 80 75 69 66 68 68 67 68 68 66 67 68 69 69 69 68 68 67 67 68 68 68 68 67 68 67 66 64 61 58 56 55 55 55 53 53 54 54 54 54 54 55 55 57 59 60 62 66 71 76 81 80 77 75 73 70 70 70 68 63 61 63 62 60 58 56 55 54 52
73 79 82 81 82 84 86 89 94 92 83 78 83 83 79 82 86 83 80 78 77 76 75 75 75 74 72 71 71 71 70 67 66 64 61 61 62 61 62 62 61 60 59 58 58 56 54 51 50 50 52 53 54 55 55 55 54 53 53 54 55 56 56 57 58 60 64 70 72 72 72 70 68 69 69 67 62 61 63 63 62 62 63 62 60 56
68 75 80 82 84 87 89 90 90 88 82 79 83 85 83 82 82 81 81 82 79 78 77 76 74 72 71 71 70 70 69 67 66 64 61 59 58 56 56 56 56 55 55 53 53 52 50 47 46 46 46 47 49 52 54 56 56 55 53 53 53 54 54 55 56 55 56 59 62 65 67 68 68 70 72 70 65 63 64 64 65 67 66 63 60 57
63 67 73 79 84 88 91 91 87 84 82 81 82 83 82 81 82 82 82 81 80 79 78 76 75 73 71 69 68 66 65 63 61 60 59 58 56 54 52 51 50 50 48 46 46 45 44 42 41 40 40 40 40 42 44 48 52 55 55 54 54 54 54 54 55 55 55 56 56 58 60 62 63 65 69 71 69 67 67 67 67 66 65 63 61 59
58 60 65 72 77 80 83 86 85 84 83 82 81 81 80 80 80 79 78 77 77 77 77 76 75 71 67 63 58 54 52 51 49 49 49 48 47 46 44 43 42 42 41 40 39 38 37 36 35 34 34 34 34 35 36 37 39 43 46 49 51 53 55 55 54 54 55 55 55 56 56 58 59 60 62 64 64 66 69 71 72 72 71 68 65 62
56 55 60 66 71 74 77 78 79 80 80 79 79 78 78 78 78 77 76 75 74 73 71 70 67 63 58 53 48 45 44 42 41 40 39 39 38 38 37 36 36 36 37 37 36 35 35 34 33 32 31 30 31 33 34 34 32 32 33 36 40 43 49 54 56 57 56 56 56 57 56 57 57 57 58 59 60 61 62 64 66 70 72 71 67 64
57 55 57 61 65 69 69 67 68 70 70 70 71 71 72 73 74 73 72 70 67 65 63 60 57 53 50 46 43 41 39 39 38 37 37 37 37 37 37 36 35 35 35 35 35 35 35 34 34 34 33 31 31 32 33 33 33 32 31 31 32 33 37 44 50 56 59 60 61 61 61 60 58 55 53 53 54 55 56 58 62 65 67 66 65 65
59 58 59 61 64 65 64 62 62 62 63 62 62 63 63 63 63 62 62 60 58 55 52 49 46 44 42 41 40 39 39 39 40 40 40 39 39 39 38 37 36 35 35 35 36 35 34 34 34 34 34 33 34 34 34 32 32 33 33 33 33 34 35 36 41 47 53 58 63 67 67 66 63 60 56 54 52 49 49 53 58 63 64 63 62 62
60 62 63 65 67 68 67 65 63 63 63 62 62 62 61 61 60 59 57 55 52 49 46 44 43 42 42 42 42 41 42 41 41 41 41 40 40 39 38 37 36 35 35 35 35 35 35 34 34 33 32 32 33 34 35 33 32 32 32 33 34 36 37 37 38 41 44 48 54 61 66 69 68 64 62 61 59 56 53 51 53 57 60 61 63 62
53 56 59 61 63 65 63 61 60 61 61 61 61 61 60 58 57 53 50 48 45 44 43 43 43 43 43 43 43 43 42 42 42 42 41 40 41 40 40 40 40 38 38 38 36 35 35 35 34 33 30 29 31 32 32 33 33 33 33 34 35 36 38 38 38 39 41 42 45 48 54 60 64 65 65 65 64 64 61 54 49 48 51 56 61 63